Time,TemperatureF,DewpointF,PressureIn,WindDirection,WindDirectionDegrees,WindSpeedMPH,WindSpeedGustMPH,Humidity,HourlyPrecipIn,Conditions,Clouds,dailyrainin,SolarRadiationWatts/m^2,SoftwareType,DateUTC
2013-01-05 00:00:00,34.7,-99.9,20.00,NE,43,0.0,14.0,255,0.00,,,0.00,0,Wunderground v.1.15,2013-01-05 08:00:00,
2013-01-05 00:10:00,34.0,-99.9,20.00,NE,43,1.0,14.0,255,0.00,,,0.00,0,Wunderground v.1.15,2013-01-05 08:10:00,
2013-01-05 00:20:00,33.5,-99.9,20.00,NE,43,1.0,14.0,255,0.00,,,0.00,0,Wunderground v.1.15,2013-01-05 08:20:00,
2013-01-05 00:25:00,33.6,-99.9,20.00,NE,43,0.0,14.0,255,0.00,,,0.00,0,Wunderground v.1.15,2013-01-05 08:25:00,
2013-01-05 00:35:00,33.2,-99.9,20.00,NE,43,0.0,14.0,255,0.00,,,0.00,0,Wunderground v.1.15,2013-01-05 08:35:00,
2013-01-05 00:45:00,33.6,-99.9,20.00,NE,43,0.0,14.0,255,0.00,,,0.00,0,Wunderground v.1.15,2013-01-05 08:45:00,
2013-01-05 00:50:00,32.8,-99.9,20.00,NE,43,1.0,14.0,255,0.00,,,0.00,0,Wunderground v.1.15,2013-01-05 08:50:00,
2013-01-05 01:00:00,32.9,-99.9,20.00,NE,45,2.0,14.0,255,0.00,,,0.00,0,Wunderground v.1.15,2013-01-05 09:00:00,
2013-01-05 01:10:00,33.4,-99.9,20.00,NE,45,0.0,14.0,255,0.00,,,0.00,0,Wunderground v.1.15,2013-01-05 09:10:00,
2013-01-05 01:20:00,32.9,-99.9,20.00,NE,45,2.0,14.0,255,0.00,,,0.00,0,Wunderground v.1.15,2013-01-05 09:20:00,
2013-01-05 01:30:00,33.1,-99.9,20.00,NE,45,2.0,14.0,255,0.00,,,0.00,0,Wunderground v.1.15,2013-01-05 09:30:00,
2013-01-05 01:40:00,33.0,-99.9,20.00,NE,45,0.0,14.0,255,0.00,,,0.00,0,Wunderground v.1.15,2013-01-05 09:40:00,
2013-01-05 01:50:00,33.3,-99.9,20.00,NE,45,0.0,14.0,255,0.00,,,0.00,0,Wunderground v.1.15,2013-01-05 09:50:00,
2013-01-05 02:00:00,35.2,-99.9,20.00,NE,45,0.0,14.0,255,0.00,,,0.00,0,Wunderground v.1.15,2013-01-05 10:00:00,
2013-01-05 02:10:00,35.7,-99.9,20.00,NE,45,0.0,14.0,255,0.00,,,0.00,0,Wunderground v.1.15,2013-01-05 10:10:00,
2013-01-05 02:15:00,35.7,-99.9,20.00,NE,45,0.0,14.0,255,0.00,,,0.00,0,Wunderground v.1.15,2013-01-05 10:15:00,
2013-01-05 02:25:00,35.2,-99.9,20.00,NE,45,0.0,14.0,255,0.00,,,0.00,0,Wunderground v.1.15,2013-01-05 10:25:00,
2013-01-05 02:35:00,33.5,-99.9,20.00,NNE,25,0.0,14.0,255,0.00,,,0.00,0,Wunderground v.1.15,2013-01-05 10:35:00,
2013-01-05 02:45:00,33.1,-99.9,20.00,NNE,25,2.0,14.0,255,0.00,,,0.00,0,Wunderground v.1.15,2013-01-05 10:45:00,
2013-01-05 02:55:00,32.9,-99.9,20.00,NNE,26,1.0,14.0,255,0.00,,,0.00,0,Wunderground v.1.15,2013-01-05 10:55:00,
2013-01-05 03:05:00,33.0,-99.9,20.00,NNE,26,0.0,14.0,255,0.00,,,0.00,0,Wunderground v.1.15,2013-01-05 11:05:00,
2013-01-05 03:15:00,33.4,-99.9,20.00,NNE,26,0.0,14.0,255,0.00,,,0.00,0,Wunderground v.1.15,2013-01-05 11:15:00,
2013-01-05 03:25:00,34.1,-99.9,20.00,NNE,26,0.0,14.0,255,0.00,,,0.00,0,Wunderground v.1.15,2013-01-05 11:25:00,
2013-01-05 03:35:00,35.8,-99.9,20.00,NNE,26,0.0,14.0,255,0.00,,,0.00,0,Wunderground v.1.15,2013-01-05 11:35:00,
2013-01-05 03:40:00,35.9,-99.9,20.00,NNE,26,0.0,14.0,255,0.00,,,0.00,0,Wunderground v.1.15,2013-01-05 11:40:00,
2013-01-05 03:50:00,34.2,-99.9,20.00,NNE,26,0.0,14.0,255,0.00,,,0.00,0,Wunderground v.1.15,2013-01-05 11:50:00,
2013-01-05 04:00:00,34.9,-99.9,20.00,NNE,26,0.0,14.0,255,0.00,,,0.00,0,Wunderground v.1.15,2013-01-05 12:00:00,
2013-01-05 04:05:00,33.8,-99.9,20.00,NNE,26,0.0,14.0,255,0.00,,,0.00,0,Wunderground v.1.15,2013-01-05 12:05:00,
2013-01-05 04:15:00,33.0,-99.9,20.00,ENE,60,2.0,14.0,255,0.00,,,0.00,0,Wunderground v.1.15,2013-01-05 12:15:00,
2013-01-05 04:25:00,33.9,-99.9,20.00,ENE,60,0.0,14.0,255,0.00,,,0.00,0,Wunderground v.1.15,2013-01-05 12:25:00,
2013-01-05 04:30:00,33.9,-99.9,20.00,ENE,60,0.0,14.0,255,0.00,,,0.00,0,Wunderground v.1.15,2013-01-05 12:30:00,
2013-01-05 04:40:00,32.6,-99.9,20.00,ENE,60,2.0,14.0,255,0.00,,,0.00,0,Wunderground v.1.15,2013-01-05 12:40:00,
2013-01-05 04:50:00,32.4,-99.9,20.00,ENE,60,0.0,14.0,255,0.00,,,0.00,0,Wunderground v.1.15,2013-01-05 12:50:00,
2013-01-05 05:00:00,34.2,-99.9,20.00,ENE,60,0.0,14.0,255,0.00,,,0.00,0,Wunderground v.1.15,2013-01-05 13:00:00,
2013-01-05 05:10:00,32.3,-99.9,20.00,ENE,60,3.0,14.0,255,0.00,,,0.00,0,Wunderground v.1.15,2013-01-05 13:10:00,
2013-01-05 05:20:00,32.8,-99.9,20.00,NE,54,0.0,14.0,255,0.00,,,0.00,0,Wunderground v.1.15,2013-01-05 13:20:00,
2013-01-05 05:30:00,34.9,-99.9,20.00,NE,54,0.0,14.0,255,0.00,,,0.00,0,Wunderground v.1.15,2013-01-05 13:30:00,
2013-01-05 05:35:00,32.5,-99.9,20.00,NE,54,0.0,14.0,255,0.00,,,0.00,0,Wunderground v.1.15,2013-01-05 13:35:00,
2013-01-05 05:45:00,33.8,-99.9,20.00,NE,54,0.0,14.0,255,0.00,,,0.00,0,Wunderground v.1.15,2013-01-05 13:45:00,
2013-01-05 05:50:00,35.1,-99.9,20.00,NE,54,0.0,14.0,255,0.00,,,0.00,0,Wunderground v.1.15,2013-01-05 13:50:00,
2013-01-05 06:00:00,34.6,-99.9,20.00,NE,54,0.0,14.0,255,0.00,,,0.00,0,Wunderground v.1.15,2013-01-05 14:00:00,
2013-01-05 06:05:00,34.7,-99.9,20.00,NE,54,0.0,14.0,255,0.00,,,0.00,0,Wunderground v.1.15,2013-01-05 14:05:00,
2013-01-05 06:15:00,33.6,-99.9,20.00,NE,54,0.0,14.0,255,0.00,,,0.00,0,Wunderground v.1.15,2013-01-05 14:15:00,
2013-01-05 06:25:00,33.7,-99.9,20.00,NE,54,0.0,14.0,255,0.00,,,0.00,0,Wunderground v.1.15,2013-01-05 14:25:00,
2013-01-05 06:30:00,32.7,-99.9,20.00,NE,54,3.0,14.0,255,0.00,,,0.00,0,Wunderground v.1.15,2013-01-05 14:30:00,
2013-01-05 06:40:00,32.8,-99.9,20.00,NE,54,0.0,14.0,255,0.00,,,0.00,0,Wunderground v.1.15,2013-01-05 14:40:00,
2013-01-05 06:50:00,32.9,-99.9,20.00,NE,54,0.0,14.0,255,0.00,,,0.00,0,Wunderground v.1.15,2013-01-05 14:50:00,
2013-01-05 07:00:00,32.7,-99.9,20.00,NE,54,0.0,14.0,255,0.00,,,0.00,0,Wunderground v.1.15,2013-01-05 15:00:00,
2013-01-05 07:10:00,35.1,-99.9,20.00,NE,52,1.0,14.0,255,0.00,,,0.00,0,Wunderground v.1.15,2013-01-05 15:10:00,
2013-01-05 07:20:00,35.5,-99.9,20.00,NE,50,0.0,14.0,255,0.00,,,0.00,0,Wunderground v.1.15,2013-01-05 15:20:00,
2013-01-05 07:30:00,35.7,-99.9,20.00,NE,50,0.0,14.0,255,0.00,,,0.00,0,Wunderground v.1.15,2013-01-05 15:30:00,
2013-01-05 07:35:00,34.7,-99.9,20.00,NE,50,1.0,14.0,255,0.00,,,0.00,0,Wunderground v.1.15,2013-01-05 15:35:00,
2013-01-05 07:45:00,34.1,-99.9,20.00,NE,50,1.0,14.0,255,0.00,,,0.00,0,Wunderground v.1.15,2013-01-05 15:45:00,
2013-01-05 07:55:00,32.4,-99.9,20.00,ENE,77,5.0,14.0,255,0.00,,,0.00,0,Wunderground v.1.15,2013-01-05 15:55:00,
2013-01-05 08:05:00,32.2,-99.9,20.00,East,93,1.0,14.0,255,0.00,,,0.00,0,Wunderground v.1.15,2013-01-05 16:05:00,
2013-01-05 08:15:00,32.1,-99.9,20.00,East,93,0.0,14.0,255,0.00,,,0.00,0,Wunderground v.1.15,2013-01-05 16:15:00,
2013-01-05 08:25:00,34.1,-99.9,20.00,East,92,0.0,14.0,255,0.00,,,0.00,0,Wunderground v.1.15,2013-01-05 16:25:00,
2013-01-05 08:35:00,32.8,-99.9,20.00,East,92,4.0,14.0,255,0.00,,,0.00,0,Wunderground v.1.15,2013-01-05 16:35:00,
2013-01-05 08:45:00,33.0,-99.9,20.00,NNE,16,5.0,14.0,255,0.00,,,0.00,0,Wunderground v.1.15,2013-01-05 16:45:00,
2013-01-05 08:55:00,34.3,-99.9,20.00,ENE,58,8.0,14.0,255,0.00,,,0.00,0,Wunderground v.1.15,2013-01-05 16:55:00,
2013-01-05 09:00:00,34.7,-99.9,20.00,East,81,7.0,14.0,255,0.00,,,0.00,0,Wunderground v.1.15,2013-01-05 17:00:00,
2013-01-05 09:10:00,35.2,-99.9,20.00,East,94,9.0,14.0,255,0.00,,,0.00,0,Wunderground v.1.15,2013-01-05 17:10:00,
2013-01-05 09:20:00,35.3,-99.9,20.00,SE,129,7.0,14.0,255,0.00,,,0.00,0,Wunderground v.1.15,2013-01-05 17:20:00,
2013-01-05 09:30:00,35.5,-99.9,20.00,SE,145,2.0,14.0,255,0.00,,,0.00,0,Wunderground v.1.15,2013-01-05 17:30:00,
2013-01-05 09:40:00,34.8,-99.9,20.00,ESE,115,6.0,14.0,255,0.00,,,0.00,0,Wunderground v.1.15,2013-01-05 17:40:00,
2013-01-05 09:50:00,35.0,-99.9,20.00,East,101,5.0,14.0,255,0.00,,,0.00,0,Wunderground v.1.15,2013-01-05 17:50:00,
2013-01-05 10:00:00,34.9,-99.9,20.00,ESE,102,4.0,14.0,255,0.00,,,0.00,0,Wunderground v.1.15,2013-01-05 18:00:00,
2013-01-05 10:05:00,34.9,-99.9,20.00,ESE,102,2.0,14.0,255,0.00,,,0.00,0,Wunderground v.1.15,2013-01-05 18:05:00,
2013-01-05 10:15:00,34.9,-99.9,20.00,ESE,114,3.0,14.0,255,0.00,,,0.00,0,Wunderground v.1.15,2013-01-05 18:15:00,
2013-01-05 10:25:00,35.3,-99.9,20.00,ESE,118,3.0,14.0,255,0.00,,,0.00,0,Wunderground v.1.15,2013-01-05 18:25:00,
2013-01-05 10:35:00,35.6,-99.9,20.00,SE,130,1.0,14.0,255,0.00,,,0.00,0,Wunderground v.1.15,2013-01-05 18:35:00,
2013-01-05 10:45:00,35.6,-99.9,20.00,SE,130,4.0,14.0,255,0.00,,,0.00,0,Wunderground v.1.15,2013-01-05 18:45:00,
2013-01-05 10:50:00,35.8,-99.9,20.00,SE,130,2.0,14.0,255,0.00,,,0.00,0,Wunderground v.1.15,2013-01-05 18:50:00,
2013-01-05 11:00:00,35.6,-99.9,20.00,SE,132,4.0,14.0,255,0.00,,,0.00,0,Wunderground v.1.15,2013-01-05 19:00:00,
2013-01-05 11:10:00,35.3,-99.9,20.00,ESE,104,5.0,14.0,255,0.00,,,0.00,0,Wunderground v.1.15,2013-01-05 19:10:00,
2013-01-05 11:20:00,35.8,-99.9,20.00,ESE,118,2.0,14.0,255,0.00,,,0.00,0,Wunderground v.1.15,2013-01-05 19:20:00,
2013-01-05 11:30:00,35.9,-99.9,20.00,ESE,121,4.0,14.0,255,0.00,,,0.00,0,Wunderground v.1.15,2013-01-05 19:30:00,
2013-01-05 11:40:00,36.5,-99.9,20.00,ESE,106,3.0,14.0,255,0.00,,,0.00,0,Wunderground v.1.15,2013-01-05 19:40:00,
2013-01-05 11:50:00,36.9,-99.9,20.00,ESE,119,0.0,14.0,255,0.00,,,0.00,0,Wunderground v.1.15,2013-01-05 19:50:00,
2013-01-05 11:55:00,37.3,-99.9,20.00,ESE,118,0.0,14.0,255,0.00,,,0.00,0,Wunderground v.1.15,2013-01-05 19:55:00,
2013-01-05 12:05:00,37.1,-99.9,20.00,East,92,2.0,14.0,255,0.00,,,0.00,0,Wunderground v.1.15,2013-01-05 20:05:00,
2013-01-05 12:10:00,37.0,-99.9,20.00,East,96,4.0,14.0,255,0.00,,,0.00,0,Wunderground v.1.15,2013-01-05 20:10:00,
2013-01-05 12:20:00,37.0,-99.9,20.00,ESE,108,4.0,14.0,255,0.00,,,0.00,0,Wunderground v.1.15,2013-01-05 20:20:00,
2013-01-05 12:30:00,36.8,-99.9,20.00,ESE,115,5.0,14.0,255,0.00,,,0.00,0,Wunderground v.1.15,2013-01-05 20:30:00,
2013-01-05 12:40:00,36.6,-99.9,20.00,SE,124,10.0,14.0,255,0.00,,,0.00,0,Wunderground v.1.15,2013-01-05 20:40:00,
2013-01-05 12:50:00,36.5,-99.9,20.00,SE,129,8.0,14.0,255,0.00,,,0.00,0,Wunderground v.1.15,2013-01-05 20:50:00,
2013-01-05 13:00:00,36.3,-99.9,20.00,SE,134,10.0,14.0,255,0.00,,,0.00,0,Wunderground v.1.15,2013-01-05 21:00:00,
2013-01-05 13:10:00,36.5,-99.9,20.00,ESE,120,9.0,14.0,255,0.00,,,0.00,0,Wunderground v.1.15,2013-01-05 21:10:00,
2013-01-05 13:20:00,36.7,-99.9,20.00,SE,124,13.0,14.0,255,0.00,,,0.00,0,Wunderground v.1.15,2013-01-05 21:20:00,
2013-01-05 13:25:00,36.7,-99.9,20.00,ESE,110,9.0,14.0,255,0.00,,,0.00,0,Wunderground v.1.15,2013-01-05 21:25:00,
2013-01-05 13:35:00,36.6,-99.9,20.00,SE,130,8.0,14.0,255,0.00,,,0.00,0,Wunderground v.1.15,2013-01-05 21:35:00,
2013-01-05 13:45:00,36.5,-99.9,20.00,SE,126,6.0,14.0,255,0.00,,,0.00,0,Wunderground v.1.15,2013-01-05 21:45:00,
2013-01-05 13:55:00,36.6,-99.9,20.00,SE,129,7.0,14.0,255,0.00,,,0.00,0,Wunderground v.1.15,2013-01-05 21:55:00,
2013-01-05 14:05:00,36.6,-99.9,20.00,SE,126,7.0,14.0,255,0.00,,,0.00,0,Wunderground v.1.15,2013-01-05 22:05:00,
2013-01-05 14:15:00,36.8,-99.9,20.00,SE,125,6.0,14.0,255,0.00,,,0.00,0,Wunderground v.1.15,2013-01-05 22:15:00,
2013-01-05 14:25:00,36.7,-99.9,20.00,ESE,109,6.0,14.0,255,0.00,,,0.00,0,Wunderground v.1.15,2013-01-05 22:25:00,
2013-01-05 14:35:00,36.5,-99.9,20.00,SE,128,3.0,14.0,255,0.00,,,0.00,0,Wunderground v.1.15,2013-01-05 22:35:00,
2013-01-05 14:45:00,37.4,-99.9,20.00,SE,124,0.0,14.0,255,0.00,,,0.00,0,Wunderground v.1.15,2013-01-05 22:45:00,
2013-01-05 14:50:00,38.0,-99.9,20.00,SE,129,0.0,14.0,255,0.00,,,0.00,0,Wunderground v.1.15,2013-01-05 22:50:00,
2013-01-05 15:00:00,38.3,-99.9,20.00,SE,130,0.0,14.0,255,0.00,,,0.00,0,Wunderground v.1.15,2013-01-05 23:00:00,
2013-01-05 15:10:00,36.5,-99.9,20.00,SE,131,4.0,14.0,255,0.00,,,0.00,0,Wunderground v.1.15,2013-01-05 23:10:00,
2013-01-05 15:20:00,36.0,-99.9,20.00,SE,134,8.0,14.0,255,0.00,,,0.00,0,Wunderground v.1.15,2013-01-05 23:20:00,
2013-01-05 15:30:00,35.8,-99.9,20.00,ESE,121,7.0,14.0,255,0.00,,,0.00,0,Wunderground v.1.15,2013-01-05 23:30:00,
2013-01-05 15:40:00,35.6,-99.9,20.00,SE,124,10.0,14.0,255,0.00,,,0.00,0,Wunderground v.1.15,2013-01-05 23:40:00,
2013-01-05 15:50:00,35.5,-99.9,20.00,ESE,119,7.0,14.0,255,0.00,,,0.00,0,Wunderground v.1.15,2013-01-05 23:50:00,
2013-01-05 15:55:00,35.4,-99.9,20.00,SE,124,8.0,14.0,255,0.00,,,0.00,0,Wunderground v.1.15,2013-01-05 23:55:00,
2013-01-05 16:05:00,35.7,-99.9,20.00,SE,127,6.0,14.0,255,0.00,,,0.00,0,Wunderground v.1.15,2013-01-06 00:05:00,
2013-01-05 16:15:00,35.8,-99.9,20.00,SE,127,5.0,14.0,255,0.00,,,0.00,0,Wunderground v.1.15,2013-01-06 00:15:00,
2013-01-05 16:25:00,35.7,-99.9,20.00,ESE,121,8.0,14.0,255,0.00,,,0.00,0,Wunderground v.1.15,2013-01-06 00:25:00,
2013-01-05 16:35:00,35.4,-99.9,20.00,SE,136,12.0,14.0,255,0.00,,,0.00,0,Wunderground v.1.15,2013-01-06 00:35:00,
2013-01-05 16:45:00,35.5,-99.9,20.00,SE,131,13.0,14.0,255,0.00,,,0.00,0,Wunderground v.1.15,2013-01-06 00:45:00,
2013-01-05 16:55:00,35.3,-99.9,20.00,ESE,118,8.0,14.0,255,0.00,,,0.00,0,Wunderground v.1.15,2013-01-06 00:55:00,
2013-01-05 17:05:00,35.5,-99.9,20.00,ESE,110,8.0,14.0,255,0.00,,,0.00,0,Wunderground v.1.15,2013-01-06 01:05:00,
2013-01-05 17:15:00,35.5,-99.9,20.00,ESE,123,10.0,14.0,255,0.00,,,0.00,0,Wunderground v.1.15,2013-01-06 01:15:00,
2013-01-05 17:20:00,35.6,-99.9,20.00,SE,130,6.0,14.0,255,0.00,,,0.00,0,Wunderground v.1.15,2013-01-06 01:20:00,
2013-01-05 17:30:00,35.9,-99.9,20.00,SE,129,9.0,14.0,255,0.00,,,0.00,0,Wunderground v.1.15,2013-01-06 01:30:00,
2013-01-05 17:40:00,36.4,-99.9,20.00,ESE,115,9.0,14.0,255,0.00,,,0.00,0,Wunderground v.1.15,2013-01-06 01:40:00,
2013-01-05 17:50:00,36.3,-99.9,20.00,ESE,105,12.0,14.0,255,0.00,,,0.00,0,Wunderground v.1.15,2013-01-06 01:50:00,
2013-01-05 18:00:00,36.2,-99.9,20.00,ESE,121,9.0,14.0,255,0.00,,,0.00,0,Wunderground v.1.15,2013-01-06 02:00:00,
2013-01-05 18:10:00,36.2,-99.9,20.00,SE,139,6.0,14.0,255,0.00,,,0.00,0,Wunderground v.1.15,2013-01-06 02:10:00,
2013-01-05 18:20:00,37.0,-99.9,20.00,SW,215,1.0,14.0,255,0.00,,,0.00,0,Wunderground v.1.15,2013-01-06 02:20:00,
2013-01-05 18:30:00,37.7,-99.9,20.00,SW,215,0.0,14.0,255,0.00,,,0.00,0,Wunderground v.1.15,2013-01-06 02:30:00,
2013-01-05 18:40:00,37.4,-99.9,20.00,SSW,212,0.0,14.0,255,0.00,,,0.00,0,Wunderground v.1.15,2013-01-06 02:40:00,
2013-01-05 18:45:00,37.4,-99.9,20.00,SSW,211,0.0,14.0,255,0.00,,,0.00,0,Wunderground v.1.15,2013-01-06 02:45:00,
2013-01-05 18:55:00,36.2,-99.9,20.00,SE,136,3.0,14.0,255,0.00,,,0.00,0,Wunderground v.1.15,2013-01-06 02:55:00,
2013-01-05 19:05:00,35.7,-99.9,20.00,SE,131,2.0,14.0,255,0.00,,,0.00,0,Wunderground v.1.15,2013-01-06 03:05:00,
2013-01-05 19:15:00,35.5,-99.9,20.00,SE,126,4.0,14.0,255,0.00,,,0.00,0,Wunderground v.1.15,2013-01-06 03:15:00,
2013-01-05 19:25:00,35.2,-99.9,20.00,SE,127,0.0,14.0,255,0.00,,,0.00,0,Wunderground v.1.15,2013-01-06 03:25:00,
2013-01-05 19:35:00,35.7,-99.9,20.00,SE,127,0.0,14.0,255,0.00,,,0.00,0,Wunderground v.1.15,2013-01-06 03:35:00,
2013-01-05 19:45:00,37.1,-99.9,20.00,SE,127,2.0,14.0,255,0.00,,,0.00,0,Wunderground v.1.15,2013-01-06 03:45:00,
2013-01-05 19:55:00,36.3,-99.9,20.00,SSW,212,0.0,14.0,255,0.00,,,0.00,0,Wunderground v.1.15,2013-01-06 03:55:00,
2013-01-05 20:05:00,35.9,-99.9,20.00,SSE,155,3.0,14.0,255,0.00,,,0.00,0,Wunderground v.1.15,2013-01-06 04:05:00,
2013-01-05 20:10:00,36.7,-99.9,20.00,South,186,2.0,14.0,255,0.00,,,0.00,0,Wunderground v.1.15,2013-01-06 04:10:00,
2013-01-05 20:20:00,36.4,-99.9,20.00,South,186,7.0,14.0,255,0.00,,,0.00,0,Wunderground v.1.15,2013-01-06 04:20:00,
2013-01-05 20:30:00,36.1,-99.9,20.00,SSE,152,5.0,14.0,255,0.00,,,0.00,0,Wunderground v.1.15,2013-01-06 04:30:00,
2013-01-05 20:40:00,35.9,-99.9,20.00,SE,138,8.0,14.0,255,0.00,,,0.00,0,Wunderground v.1.15,2013-01-06 04:40:00,
2013-01-05 20:50:00,35.7,-99.9,20.00,SE,130,7.0,14.0,255,0.00,,,0.00,0,Wunderground v.1.15,2013-01-06 04:50:00,
2013-01-05 21:05:00,34.4,-99.9,20.00,ESE,109,6.0,14.0,255,0.00,,,0.00,0,Wunderground v.1.15,2013-01-06 05:05:00,
2013-01-05 21:10:00,34.3,-99.9,20.00,ESE,108,4.0,14.0,255,0.00,,,0.00,0,Wunderground v.1.15,2013-01-06 05:10:00,
2013-01-05 21:20:00,34.0,-99.9,20.00,East,94,3.0,14.0,255,0.00,,,0.00,0,Wunderground v.1.15,2013-01-06 05:20:00,
2013-01-05 21:25:00,34.1,-99.9,20.00,ESE,115,4.0,14.0,255,0.00,,,0.00,0,Wunderground v.1.15,2013-01-06 05:25:00,
2013-01-05 21:35:00,34.1,-99.9,20.00,SE,127,4.0,14.0,255,0.00,,,0.00,0,Wunderground v.1.15,2013-01-06 05:35:00,
2013-01-05 21:45:00,33.7,-99.9,20.00,SE,125,4.0,14.0,255,0.00,,,0.00,0,Wunderground v.1.15,2013-01-06 05:45:00,
2013-01-05 21:55:00,33.5,-99.9,20.00,SE,129,8.0,14.0,255,0.00,,,0.00,0,Wunderground v.1.15,2013-01-06 05:55:00,
2013-01-05 22:00:00,33.3,-99.9,20.00,ESE,114,4.0,14.0,255,0.00,,,0.00,0,Wunderground v.1.15,2013-01-06 06:00:00,
2013-01-05 22:10:00,33.2,-99.9,20.00,SE,125,7.0,14.0,255,0.00,,,0.00,0,Wunderground v.1.15,2013-01-06 06:10:00,
2013-01-05 22:15:00,33.1,-99.9,20.00,ESE,113,5.0,14.0,255,0.00,,,0.00,0,Wunderground v.1.15,2013-01-06 06:15:00,
2013-01-05 22:25:00,33.0,-99.9,20.00,ESE,111,6.0,14.0,255,0.00,,,0.00,0,Wunderground v.1.15,2013-01-06 06:25:00,
2013-01-05 22:30:00,33.0,-99.9,20.00,ESE,106,5.0,14.0,255,0.00,,,0.00,0,Wunderground v.1.15,2013-01-06 06:30:00,
2013-01-05 22:40:00,33.3,-99.9,20.00,ESE,110,3.0,14.0,255,0.00,,,0.00,0,Wunderground v.1.15,2013-01-06 06:40:00,
2013-01-05 22:50:00,33.3,-99.9,20.00,ESE,110,4.0,14.0,255,0.00,,,0.00,0,Wunderground v.1.15,2013-01-06 06:50:00,
2013-01-05 23:00:00,33.2,-99.9,20.00,SE,124,5.0,14.0,255,0.00,,,0.00,0,Wunderground v.1.15,2013-01-06 07:00:00,
2013-01-05 23:10:00,33.6,-99.9,20.00,ESE,110,5.0,14.0,255,0.00,,,0.00,0,Wunderground v.1.15,2013-01-06 07:10:00,
2013-01-05 23:20:00,33.7,-99.9,20.00,ESE,110,5.0,14.0,255,0.00,,,0.00,0,Wunderground v.1.15,2013-01-06 07:20:00,
2013-01-05 23:30:00,33.7,-99.9,20.00,ESE,117,5.0,14.0,255,0.00,,,0.00,0,Wunderground v.1.15,2013-01-06 07:30:00,
2013-01-05 23:40:00,33.8,-99.9,20.00,ESE,122,6.0,14.0,255,0.00,,,0.00,0,Wunderground v.1.15,2013-01-06 07:40:00,
2013-01-05 23:50:00,33.7,-99.9,20.00,SE,128,9.0,14.0,255,0.00,,,0.00,0,Wunderground v.1.15,2013-01-06 07:50:00,